Location: Unspecified
(0.0000°N, 0.0000°E)
Time: 22:52:59
(UTC+00:00)

USA 402 - Visible Passes

Search period start: 05 June 2026 00:00
Search period end: 15 June 2026 00:00
Orbit: 575 x 579 km, 70.0° (Epoch: 16 July)

Date Brightness Start Highest point End Pass type
(mag) Time Alt. Az. Time Alt. Az. Time Alt. Az.
10 Jun ? 20:08:40 10° N 20:09:10 13° N 20:09:10 13° N visible
11 Jun ? 20:12:22 10° NNW 20:13:44 20° NNW 20:13:44 20° NNW visible
12 Jun ? 20:16:23 10° NNW 20:18:23 26° NW 20:18:23 26° NW visible
13 Jun ? 20:20:45 10° NW 20:23:06 24° WNW 20:23:06 24° WNW visible
14 Jun ? 18:47:18 10° NNE 18:50:12 18° ENE 18:51:34 16° E visible
14 Jun ? 20:25:39 10° WNW 20:27:53 16° W 20:27:53 16° W visible
